Location: Newark
(48.8833°N, 0.9236°W)
Time: 08:48:29
(UTC+00:00)

N. Korean satellite - Visible Passes

Search period start: 20 October 2019 00:00
Search period end: 30 October 2019 00:00
Orbit: 455 x 508 km, 97.2° (Epoch: 19 October)

Date Brightness Start Highest point End Pass type
(mag) Time Alt. Az. Time Alt. Az. Time Alt. Az.
20 Oct 10.4 04:50:24 10° ENE 04:51:30 11° E 04:52:36 10° ESE visible
21 Oct 7.2 05:56:24 10° NNE 06:00:00 63° ESE 06:03:37 10° S visible
21 Oct 10.0 18:10:36 10° SW 18:12:39 15° W 18:14:43 10° NW visible
22 Oct 8.7 05:31:20 10° NNE 05:34:37 32° E 05:37:55 10° SSE visible
22 Oct 9.0 17:44:08 10° SSW 17:47:09 28° W 17:50:12 10° NW visible
23 Oct 9.9 05:06:39 10° NE 05:09:09 17° E 05:11:39 10° SE visible
25 Oct 7.7 05:48:34 10° NNE 05:52:09 51° E 05:55:45 10° S visible
25 Oct 9.8 18:02:15 10° SW 18:04:43 18° W 18:07:12 10° NW visible
26 Oct 9.1 05:23:35 10° NE 05:26:44 26° E 05:29:54 10° SSE visible
26 Oct 8.5 17:36:02 10° SSW 17:39:13 34° W 17:42:29 10° NNW visible
27 Oct 10.1 04:59:06 10° NE 05:01:13 15° E 05:03:21 10° SE visible
28 Oct 6.7 06:05:56 10° NNE 06:09:37 84° ESE 06:13:19 10° SSW visible
28 Oct 10.2 18:20:56 10° WSW 18:22:18 12° W 18:23:40 10° WNW visible
29 Oct 8.1 05:40:44 10° NNE 05:44:15 42° E 05:47:47 10° S visible
29 Oct 9.4 17:53:57 10° SSW 17:56:44 22° W 17:59:34 10° NW visible
